User: anonymous   Login
Location: Fort Wayne
(41.1310°N, 85.1290°W)
Time: 00:23:55
(UTC-04:00)
Language:

SR - Orbit

View from above orbital plane
View from above orbital plane
View from above satellite
View from above satellite

Ground track
Ground track

The orbit data is extracted from the following two-line orbital elements,

1 00046U 60007B   14298.76095495  .00001261  00000-0  27341-3 0  7686
2 00046 066.6917 214.2825 0219567 228.6907 129.5121 14.47921728840418
Epoch (UTC): 25 October 2014 18:15:46
Eccentricity: 0.0219567
inclination: 66.6917°
perigee height: 576 km
apogee height: 888 km
right ascension of ascending node: 214.2825°
argument of perigee: 228.6907°
revolutions per day: 14.47921728
mean anomaly at epoch: 129.5121°
orbit number at epoch: 84041

The dashed part of the orbit path shows where the satellite is in the earth's shadow,  

DLR